Location: Buena Vista Beach
(41.8098°N, 81.1279°W)
Time: 23:47:24
(UTC+00:00)

CSL-04 Rocket - Pass Details

Date: 29 October 2020
Orbit: 805 x 861 km, 98.9° (Epoch: 29 November)

Event Time Altitude Azimuth Distance (km) Brightness Sun altitude
Exits shadow 23:39:11 - 137° (SE) 2,923 6.1 -14.9°
Reaches altitude 10° 23:40:22 10° 133° (SE) 2,489 5.8 -15.1°
Maximum altitude 23:45:23 37° 67° (ENE) 1,308 4.2 -16.1°
Drops below altitude 10° 23:50:24 10° 2° (N) 2,483 6.1 -17.0°
Sets 23:52:54 0° 355° (N) 3,415 6.9 -17.5°
